Berlin Tegel, Germany

12:58 PM CEST on April 29, 2017 (GMT +0200)
Tegel

Weather History for EDDT - January, 2014

Change the Weather History Date:

Sunday, January 26, 2014

  Actual Average Record
Temperature  
Mean Temperature 11 °F -  
Max Temperature 15 °F 39 °F 53 °F (2002)
Min Temperature 7 °F 29 °F 7 °F (2014)
Degree Days  
Heating Degree Days 54    
Moisture  
Dew Point 7 °F    
Average Humidity 78    
Maximum Humidity 86    
Minimum Humidity 63    
Precipitation  
Precipitation 0.00 in - - ()
Sea Level Pressure  
Sea Level Pressure 29.89 in    
Wind  
Wind Speed 11 mph ()    
Max Wind Speed 17 mph    
Max Gust Speed -    
Visibility 5.9 miles    
Events Snow    
Averages and records for this station are not official NWS values.
T = Trace of Precipitation, MM = Missing Value Source: Averaged Metar Reports

Daily Weather History Graph

Daily Weather History Graph

Search for Another Location

Airport or City:

Trip Planner

Search our weather history database for the weather conditions in past years. The results will help you decide how hot, cold, wet, or windy it might be!

Date:

Astronomy

Jan. 26, 2014 Rise Set
Actual Time 7:57 AM CET 4:41 PM CET
Civil Twilight 7:19 AM CET 5:19 PM CET
Nautical Twilight 6:37 AM CET 6:01 PM CET
Astronomical Twilight 5:57 AM CET 6:41 PM CET
Moon 3:17 AM CET (1/26) 12:12 PM CET (1/26)
Length of Visible Light 9h 59m
Length of Day
8h 43m
Waning Crescent, 26% of the Moon is Illuminated
Jan 26
Waning Crescent
Jan 30
New
Feb 6
First Quarter
Feb 15
Full
Feb 22
Last Quarter

Hourly Weather History & Observations

Time (CET) Temp. Windchill Dew Point Humidity Pressure Visibility Wind Dir Wind Speed Gust Speed Precip Events Conditions
12:00 AM 11 °F - 7 °F 75% 30.05 in 5 mi ESE 11.2 mph - - Snow Light Snow
12:20 AM 10.4 °F -6.6 °F 6.8 °F 85% 30.01 in 5.0 mi ESE 16.1 mph - N/A Snow Light Snow
12:50 AM 10.4 °F -7.2 °F 6.8 °F 85% 29.98 in 5.0 mi East 17.3 mph - N/A Snow Light Snow
1:00 AM 11 °F - 6 °F 74% 30.01 in 5 mi ESE 13.4 mph - - Snow Light Snow
1:20 AM 10.4 °F -5.4 °F 6.8 °F 85% 29.98 in 5.0 mi ESE 13.8 mph - N/A Snow Light Snow
1:50 AM 10.4 °F -5.4 °F 6.8 °F 85% 29.98 in 5.0 mi East 13.8 mph - N/A Snow Light Snow
2:00 AM 11 °F - 6 °F 74% 30.00 in 5 mi ESE 13.4 mph - - Snow Light Snow
2:20 AM 10.4 °F -5.4 °F 6.8 °F 85% 29.95 in 5.0 mi East 13.8 mph - N/A Snow Light Snow
2:50 AM 10.4 °F -6.0 °F 5.0 °F 79% 29.95 in 5.6 mi East 15.0 mph - N/A   Mostly Cloudy
3:00 AM 10 °F - 5 °F 73% 29.97 in 6 mi ESE 15.7 mph - - Snow Light Snow
3:20 AM 10.4 °F -5.4 °F 6.8 °F 85% 29.95 in 5.0 mi ESE 13.8 mph - N/A Snow Light Snow
3:50 AM 10.4 °F -6.0 °F 5.0 °F 79% 29.95 in 5.0 mi East 15.0 mph - N/A Snow Light Snow
4:00 AM 10 °F - 5 °F 73% 29.97 in 5 mi East 11.2 mph - - Snow Light Snow
4:20 AM 10.4 °F -6.0 °F 6.8 °F 85% 29.95 in 5.0 mi East 15.0 mph - N/A Snow Light Snow
4:50 AM 8.6 °F -8.3 °F 5.0 °F 85% 29.95 in 5.0 mi East 15.0 mph - N/A Snow Light Snow
5:00 AM 10 °F - 5 °F 70% 29.97 in 5 mi East 11.2 mph - -   Ice Crystals
5:20 AM 8.6 °F -8.3 °F 5.0 °F 85% 29.95 in 5.0 mi East 15.0 mph - N/A Snow Light Snow
5:50 AM 8.6 °F -8.3 °F 5.0 °F 85% 29.95 in 4.3 mi East 15.0 mph - N/A Snow Light Snow
6:00 AM 9 °F - 4 °F 72% 29.97 in 4 mi East 13.4 mph - -   Ice Crystals
6:20 AM 8.6 °F -8.3 °F 5.0 °F 85% 29.95 in 4.3 mi East 15.0 mph - N/A Snow Light Snow
6:50 AM 6.8 °F -11.3 °F 3.2 °F 85% 29.95 in 3.7 mi ENE 16.1 mph - N/A   Mostly Cloudy
7:00 AM 8 °F - 4 °F 75% 29.98 in 4 mi East 11.2 mph - - Snow Light Snow
7:20 AM 8.6 °F -6.3 °F 5.0 °F 85% 29.98 in 3.7 mi East 11.5 mph - N/A Snow Light Snow
7:50 AM 8.6 °F -6.3 °F 5.0 °F 85% 29.98 in 3.7 mi East 11.5 mph - N/A Snow Light Snow
8:00 AM 8 °F - 5 °F 79% 29.99 in 4 mi East 11.2 mph - - Snow Light Snow
8:20 AM 8.6 °F -7.7 °F 5.0 °F 85% 29.98 in 4.3 mi East 13.8 mph - N/A Snow Light Snow
8:50 AM 8.6 °F -4.7 °F 5.0 °F 85% 29.98 in 4.3 mi East 9.2 mph - N/A Snow Light Snow
9:00 AM 9 °F - 5 °F 78% 30.01 in 4 mi ESE 8.9 mph - - Snow Light Snow
9:20 AM 10.4 °F -2.4 °F 5.0 °F 79% 29.98 in 4.3 mi East 9.2 mph - N/A Snow Light Snow
9:50 AM 10.4 °F -4.1 °F 5.0 °F 79% 29.98 in 5.0 mi East 11.5 mph - N/A Snow Light Snow
10:00 AM 10 °F - 6 °F 74% 30.00 in 5 mi East 6.7 mph - - Snow Light Snow
10:20 AM 10.4 °F -3.3 °F 5.0 °F 79% 29.98 in 5.0 mi ENE 10.4 mph - N/A Snow Light Snow
10:50 AM 10.4 °F -3.3 °F 5.0 °F 79% 29.98 in 5.6 mi East 10.4 mph - N/A Snow Light Snow
11:00 AM 10 °F - 5 °F 70% 29.99 in 6 mi ESE 8.9 mph - - Snow Light Snow
11:20 AM 10.4 °F -3.3 °F 5.0 °F 79% 29.95 in 6.2 mi East 10.4 mph - N/A Snow Light Snow
11:50 AM 10.4 °F -2.4 °F 5.0 °F 79% 29.95 in 6.2 mi East 9.2 mph - N/A Snow Light Snow
12:00 PM 11 °F - 5 °F 67% 29.97 in 8 mi East 6.7 mph - - Snow Light Snow
12:20 PM 12.2 °F -1.0 °F 5.0 °F 73% 29.92 in 6.2 mi East 10.4 mph - N/A Snow Light Snow
12:50 PM 12.2 °F -2.5 °F 6.8 °F 79% 29.92 in 6.2 mi East 12.7 mph - N/A Snow Light Snow
1:00 PM 13 °F - 6 °F 63% 29.94 in 9 mi East 6.7 mph - - Snow Light Snow
1:20 PM 14.0 °F 0.5 °F 6.8 °F 73% 29.92 in 6.2 mi East 11.5 mph - N/A Snow Light Snow
1:50 PM 14.0 °F 1.2 °F 6.8 °F 73% 29.89 in 6.2 mi East 10.4 mph - N/A   Scattered Clouds
2:00 PM 13 °F - 7 °F 65% 29.92 in 9 mi SE 8.9 mph - - Snow Light Snow
2:20 PM 14.0 °F 1.2 °F 6.8 °F 73% 29.89 in 6.2 mi East 10.4 mph - N/A   Mostly Cloudy
2:50 PM 14.0 °F 1.2 °F 6.8 °F 73% 29.89 in 6.2 mi East 10.4 mph - N/A   Mostly Cloudy
3:00 PM 14 °F - 7 °F 63% 29.91 in 10 mi ESE 8.9 mph - -   Mostly Cloudy
3:20 PM 14.0 °F 1.2 °F 6.8 °F 73% 29.89 in 6.2 mi East 10.4 mph - N/A   Mostly Cloudy
3:50 PM 14.0 °F 2.0 °F 6.8 °F 73% 29.89 in 6.2 mi ENE 9.2 mph - N/A   Scattered Clouds
4:00 PM 14 °F - 7 °F 64% 29.90 in 11 mi ESE 6.7 mph - -   Partly Cloudy
4:20 PM 14.0 °F 2.9 °F 8.6 °F 79% 29.86 in 6.2 mi East 8.1 mph - N/A   Partly Cloudy
4:50 PM 14.0 °F 2.0 °F 8.6 °F 79% 29.86 in 6.2 mi East 9.2 mph - N/A   Partly Cloudy
5:00 PM 13 °F - 8 °F 70% 29.88 in 10 mi East 6.7 mph - -   Scattered Clouds
5:20 PM 14.0 °F 2.0 °F 8.6 °F 79% 29.86 in 6.2 mi East 9.2 mph - N/A   Partly Cloudy
5:50 PM 14.0 °F 2.0 °F 8.6 °F 79% 29.83 in 6.2 mi East 9.2 mph - N/A   Partly Cloudy
6:00 PM 13 °F - 8 °F 70% 29.86 in 9 mi ESE 8.9 mph - -   Scattered Clouds
6:20 PM 12.2 °F -0.2 °F 8.6 °F 85% 29.83 in - East 9.2 mph - N/A   Clear
6:50 PM 12.2 °F -3.1 °F 8.6 °F 85% 29.80 in - ESE 13.8 mph - N/A   Clear
7:00 PM 13 °F - 8 °F 71% 29.82 in 9 mi ESE 8.9 mph - -   Partly Cloudy
7:20 PM 14.0 °F -0.2 °F 8.6 °F 79% 29.77 in 6.2 mi East 12.7 mph - N/A   Mostly Cloudy
7:50 PM 14.0 °F -0.2 °F 8.6 °F 79% 29.77 in 6.2 mi ESE 12.7 mph - N/A   Mostly Cloudy
8:00 PM 13 °F - 8 °F 74% 29.79 in 9 mi ESE 11.2 mph - -   Mostly Cloudy
8:20 PM 14.0 °F 0.5 °F 8.6 °F 79% 29.74 in 6.2 mi East 11.5 mph - N/A   Mostly Cloudy
8:50 PM 14.0 °F -0.2 °F 8.6 °F 79% 29.71 in 6.2 mi ESE 12.7 mph - N/A   Mostly Cloudy
9:00 PM 14 °F - 9 °F 73% 29.75 in 8 mi ESE 11.2 mph - -   Mostly Cloudy
9:20 PM 14.0 °F -0.8 °F 10.4 °F 86% 29.68 in 6.2 mi East 13.8 mph - N/A   Mostly Cloudy
9:50 PM 14.0 °F -0.2 °F 10.4 °F 86% 29.68 in 6.2 mi ESE 12.7 mph - N/A   Mostly Cloudy
10:00 PM 14 °F - 10 °F 75% 29.71 in 7 mi ESE 8.9 mph - -   Overcast
10:20 PM 14.0 °F -0.2 °F 10.4 °F 86% 29.65 in 6.2 mi East 12.7 mph - N/A   Mostly Cloudy
10:50 PM 14.0 °F -0.2 °F 10.4 °F 86% 29.65 in 6.2 mi East 12.7 mph - N/A   Mostly Cloudy
11:00 PM 15 °F - 11 °F 75% 29.66 in 7 mi ESE 11.2 mph - -   Overcast
11:20 PM 15.8 °F 3.4 °F 10.4 °F 79% 29.62 in 6.2 mi ESE 10.4 mph - N/A   Mostly Cloudy
11:50 PM 15.8 °F 2.7 °F 12.2 °F 86% 29.62 in 5.0 mi ESE 11.5 mph - N/A Snow Light Snow